Home > Weather > Rawalpindi > Past weeks

Flag for Pakistan Weather for the Past 2 Weeks in Rawalpindi, Pakistan

Now
88 °F

Clear.


Feels Like: 85 °F
Forecast: 67 / 101 °F
Wind: 7 mph from Northwest

Location: Islamabad Airport

Current Time: Apr 30, 2016 at 10:27:10 PM

Latest Report: Apr 30, 2016 at 8:00 PM


Visibility: 10 mi

Pressure: 29.74 "Hg (28.11 "Hg at 501m altitude)

Humidity: 25%

Dew Point: 48 °F

Location of RawalpindiLocation

Historic Weather in Rawalpindi — Graph

°F

Rawalpindi Temperature Yesterday

Maximum temperature yesterday: 99 °F (at 2:30 PM)
Minimum temperature yesterday: 70 °F (at 4:00 AM)
Average temperature yesterday: 85 °F

High & Low Weather Summary for the Past Weeks

 TemperatureHumidityPressure
High99 °F (Apr 29, 2:30 PM)88% (Apr 17, 4:00 AM)29.95 "Hg (Apr 17, 4:00 AM)
Low59 °F (Apr 24, 6:00 AM)17% (Apr 26, 4:00 PM)29.65 "Hg (Apr 17, 1:00 AM)
Average79 °F44%29.80 "Hg
* Reported Apr 15 8:00 PM — Apr 30 8:00 PM, Rawalpindi, Weather by CustomWeather, © 2016

Note: Actual official high and low records may vary slightly from our data, if they occured in-between our weather recording intervals... More about our weather records

Advertising

Rawalpindi Weather History for the Previous 24 Hours

Scroll right to see more
 ConditionsComfort  
Time TempWeatherWind HumidityBarometerVisibility
8:00 PM
Sat, Apr 30
88 °FClear.7 mph25%29.74 "Hg10 mi
12:30 PM97 °FClear.7 mph22%29.83 "Hg4 mi
12:00 PM97 °FClear.7 mph22%29.83 "Hg4 mi
11:30 AM93 °FClear.5 mph23%29.83 "Hg4 mi
11:00 AM93 °FClear.5 mph23%29.83 "Hg4 mi
10:30 AM90 °FClear.5 mph27%29.83 "Hg4 mi
10:00 AM90 °FClear.5 mph27%29.83 "Hg4 mi
9:30 AM88 °FClear.5 mph29%29.83 "Hg4 mi
9:00 AM88 °FClear.5 mph29%29.83 "Hg4 mi
5:00 AM70 °FClear.5 mph64%29.80 "Hg4 mi
4:00 AM72 °FClear.5 mph57%29.80 "Hg4 mi
3:00 AM73 °FClear.5 mph53%29.80 "Hg4 mi
2:00 AM73 °FClear.5 mph53%29.80 "Hg4 mi
1:30 AM75 °FClear.5 mph50%29.80 "Hg4 mi
1:00 AM75 °FClear.5 mph50%29.80 "Hg4 mi
12:30 AM77 °FClear.5 mph44%29.80 "Hg4 mi
12:00 AM77 °FClear.5 mph44%29.80 "Hg4 mi
11:30 PM
Fri, Apr 29
79 °FClear.5 mph42%29.80 "Hg4 mi
11:00 PM79 °FClear.5 mph42%29.80 "Hg4 mi
10:30 PM82 °FClear.5 mph35%29.80 "Hg4 mi
10:00 PM82 °FClear.5 mph35%29.80 "Hg4 mi
Weather by CustomWeather, © 2016

See weather overviewHow to use our weather pages